x

Saginaw Bay Light #1, Mi (sblm4) Weather Station

12:00pm - Sat 21st Oct 2017 All times are CDT. -5 hours from GMT.

  • Wind
    13mph, 14mph gusts
  • Air Temp 66°f
  • Sea Pressure 1020mb
  • Saginaw Bay Light #1, Mi
  • Saginaw Bay Light #1, Mi

More Historic Weather Station data

Upgrade to MSW Pro to gain access to the past 30 days of data for over 8000 Wavebouys and Weather Stations around the globe.

Join

Comparision Forecast

View Surf forecast
   
Sat 10/21 12:00pm 13 14 mph 1020mb 66f
11:50am 14 14 mph 1020.3mb 66f
11:40am 13 14 mph 1020mb 66f
11:30am 13 14 mph 1020.3mb 65f
11:20am 11 13 mph 1020.3mb 64f
11:10am 11 14 mph 1020.3mb 64f
11:00am 13 14 mph 1020.7mb 63f
10:50am 14 16 mph 1020.3mb 63f
10:40am 15 16 mph 1020.7mb 63f
10:30am 15 18 mph 1020.7mb 62f
10:20am 16 18 mph 1020.7mb 62f
10:10am 17 18 mph 1020.7mb 61f
10:00am 15 16 mph 1020.7mb 60f
9:50am 16 18 mph 1020.7mb 61f
9:40am 15 18 mph 1020.3mb 61f
9:30am 16 21 mph 1020.7mb 60f
9:20am 18 21 mph 1020.7mb 60f
9:10am 18 21 mph 1020.7mb 60f
9:00am 18 22 mph 1020.7mb 60f
8:50am 18 22 mph 1020.7mb 59f
8:40am 18 22 mph 1020.7mb 59f
8:30am 18 22 mph 1020.7mb 59f
8:20am 18 21 mph 1020.7mb 59f
8:10am 18 22 mph 1020.7mb 58f
8:00am 20 21 mph 1020.7mb 58f
7:50am 17 21 mph 1020.7mb 58f
7:40am 17 21 mph 1020.7mb 58f
7:30am 17 20 mph 1020.7mb 58f
7:20am 17 20 mph 1020.7mb 59f
7:10am 17 20 mph 1020.3mb 59f
7:00am 16 20 mph 1020.3mb 59f
6:50am 18 21 mph 1020.3mb 59f
6:40am 20 22 mph 1020.3mb 59f
6:30am 18 21 mph 1020.7mb 59f
6:20am 16 18 mph 1020.7mb 59f
6:10am 16 18 mph 1020.3mb 59f
6:00am 16 18 mph 1020.3mb 59f
5:50am 17 18 mph 1020.3mb 59f
5:40am 16 18 mph 1020.3mb 59f
5:30am 17 21 mph 1020.3mb 59f
5:20am 17 20 mph 1020mb 59f
5:10am 16 18 mph 1020mb 59f
5:00am 17 18 mph 1020mb 59f
4:50am 17 20 mph 1020mb 59f
4:40am 17 18 mph 1020mb 60f
4:30am 15 17 mph 1019.6mb 60f
4:20am 14 18 mph 1019.6mb 60f
4:10am 15 16 mph 1019.6mb 60f
4:00am 15 17 mph 1019.3mb 60f
3:50am 15 16 mph 1019.3mb 60f
3:40am 15 17 mph 1019.3mb 60f
3:30am 15 17 mph 1019.3mb 60f
3:20am 16 18 mph 1019.6mb 60f
3:10am 16 18 mph 1019.3mb 60f
3:00am 16 18 mph 1019.6mb 60f
2:50am 16 18 mph 1019.3mb 60f
2:40am 16 18 mph 1019.3mb 60f
2:30am 16 17 mph 1019.6mb 60f
2:20am 16 17 mph 1019.6mb 60f
2:10am 14 16 mph 1019.3mb 60f
2:00am 14 16 mph 1019.3mb 60f
1:50am 15 16 mph 1019.3mb 60f
1:40am 14 17 mph 1019.3mb 60f
1:30am 16 17 mph 1019.3mb 60f
1:20am 17 18 mph 1019.3mb 60f
1:10am 17 18 mph 1019.3mb 60f
1:00am 17 21 mph 1019.3mb 61f
12:50am 17 18 mph 1019mb 61f
12:40am 16 17 mph 1019mb 61f
12:30am 16 18 mph 1019mb 61f
12:20am 17 18 mph 1019mb 61f
12:10am 15 17 mph 1019mb 61f
12:00am 15 16 mph 1019mb 61f
Fri 10/20 11:50pm 15 15 mph 1019mb 61f
11:40pm 15 16 mph 1019mb 61f
11:30pm 15 16 mph 1019mb 61f
11:20pm 15 16 mph 1019mb 61f
11:10pm 15 15 mph 1019mb 62f
11:00pm 14 17 mph 1019mb 62f
10:50pm 16 17 mph 1019mb 62f
10:40pm 16 17 mph 1019mb 62f
10:30pm 16 17 mph 1018.6mb 62f
10:20pm 16 17 mph 1018.6mb 63f
10:10pm 16 17 mph 1019mb 63f
10:00pm 16 18 mph 1019mb 63f
9:50pm 17 21 mph 1018.6mb 63f
9:40pm 18 20 mph 1018.6mb 64f
9:30pm 16 17 mph 1018.6mb 63f
9:20pm 15 17 mph 1018.6mb 63f
9:10pm 16 18 mph 1018.6mb 64f
9:00pm 16 18 mph 1018.6mb 64f
8:50pm 17 20 mph 1018.3mb 64f
8:40pm 16 18 mph 1018.3mb 64f
8:30pm 16 18 mph 1018.3mb 64f
8:20pm 16 18 mph 1018.3mb 64f
8:10pm 16 18 mph 1018.3mb 64f
8:00pm 16 18 mph 1017.9mb 64f
7:50pm 17 21 mph 1018.3mb 65f
7:40pm 20 21 mph 1018.3mb 65f
7:30pm 18 20 mph 1018.3mb 65f
7:20pm 18 21 mph 1018.3mb 65f
7:10pm 17 18 mph 1018.3mb 65f
7:00pm 17 20 mph 1018.3mb 66f
6:50pm 18 20 mph 1018.3mb 67f
6:40pm 18 20 mph 1018.3mb 67f
6:30pm 18 18 mph 1018.3mb 67f
6:20pm 17 18 mph 1018.3mb 67f
6:10pm 16 17 mph 1017.9mb 66f
6:00pm 17 20 mph 1018.3mb 67f
5:50pm 20 20 mph 1017.9mb 68f
5:40pm 18 20 mph 1017.9mb 69f
5:30pm 17 18 mph 1017.9mb 68f
5:20pm 17 18 mph 1017.9mb 68f
5:10pm 17 18 mph 1017.9mb 68f
5:00pm 17 20 mph 1017.9mb 68f
4:50pm 17 21 mph 1017.9mb 69f
4:40pm 18 21 mph 1017.9mb 69f
4:30pm 18 20 mph 1017.9mb 69f
4:20pm 17 17 mph 1017.9mb 69f
4:10pm 17 20 mph 1017.9mb 69f
4:00pm 20 21 mph 1018.3mb 70f
3:50pm 17 20 mph 1018.3mb 69f
3:40pm 16 18 mph 1018.3mb 69f
3:30pm 18 18 mph 1018.3mb 70f
3:20pm 16 18 mph 1018.6mb 68f
3:10pm 17 20 mph 1018.6mb 70f
3:00pm 18 20 mph 1018.6mb 69f
2:50pm 14 17 mph 1018.6mb 69f
2:40pm 17 20 mph 1018.6mb 69f
2:30pm 18 20 mph 1019mb 69f
2:20pm 17 18 mph 1018.6mb 69f
2:10pm 16 18 mph 1019mb 69f
2:00pm 14 17 mph 1019mb 67f
1:50pm 16 18 mph 1019.3mb 68f
1:40pm 17 18 mph 1019.3mb 69f
1:30pm 16 17 mph 1019.3mb 69f
1:20pm 14 16 mph 1019.6mb 68f
1:10pm 14 15 mph 1020mb 68f
1:00pm 15 16 mph 1020mb 68f
12:50pm 14 16 mph 1020mb 67f
12:40pm 15 16 mph 1020.3mb 67f
12:30pm 14 15 mph 1020.7mb 65f
12:20pm 15 15 mph 1020.7mb 65f
12:10pm 13 14 mph 1020.7mb 65f
12:00pm 13 14 mph 1021mb 64f
11:50am 14 15 mph 1021mb 64f
11:40am 14 15 mph 1021mb 63f
11:30am 14 16 mph 1021.3mb 63f
11:20am 15 17 mph 1021.3mb 62f
11:10am 16 17 mph 1021.3mb 62f
11:00am 14 18 mph 1021.3mb 61f
10:50am 14 17 mph 1021.7mb 61f
9:50am 16 18 mph 1022mb 58f
9:00am 17 18 mph 1022.4mb 56f
8:50am 16 17 mph 1022.4mb 56f
8:40am 15 17 mph 1022.4mb 56f
8:30am 15 16 mph 1022.7mb 55f
8:20am 14 16 mph 1022.4mb 55f
8:10am 15 17 mph 1022.4mb 55f
8:00am 15 17 mph 1022.7mb 54f
7:50am 15 17 mph 1022.7mb 54f
7:40am 15 16 mph 1022.4mb 54f
7:30am 15 16 mph 1022.4mb 54f
7:20am 14 15 mph 1022.4mb 54f
7:10am 11 14 mph 1022mb 55f
7:00am 9 11 mph 1022mb 54f
6:50am 10 11 mph 1022mb 54f
6:40am 10 14 mph 1022mb 54f
6:30am 10 13 mph 1022mb 54f
6:20am 11 14 mph 1022mb 54f
6:10am 13 15 mph 1022mb 54f
6:00am 14 15 mph 1021.7mb 53f
5:50am 14 15 mph 1021.7mb 53f
5:40am 13 14 mph 1021.7mb 53f
5:30am 13 14 mph 1021.7mb 53f
5:20am 11 14 mph 1021.7mb 53f
5:10am 11 14 mph 1021.7mb 53f
5:00am 13 14 mph 1021.7mb 53f
4:50am 13 14 mph 1021.7mb 53f
4:40am 11 13 mph 1021.7mb 53f
4:30am 10 11 mph 1021.7mb 54f
4:20am 10 11 mph 1021.7mb 54f
4:10am 10 13 mph 1021.7mb 54f
4:00am 11 14 mph 1021.7mb 54f
3:50am 11 13 mph 1021.7mb 55f
3:40am 11 14 mph 1021.7mb 55f
3:30am 13 14 mph 1021.7mb 55f
3:20am 13 14 mph 1021.7mb 55f
3:10am 13 15 mph 1021.7mb 55f
3:00am 13 15 mph 1021.7mb 55f
2:50am 10 13 mph 1021.7mb 55f
2:40am 11 16 mph 1021.7mb 55f
2:30am 11 14 mph 1021.7mb 55f
2:20am 14 16 mph 1021.7mb 55f
2:10am 14 16 mph 1021.3mb 56f
2:00am 14 16 mph 1021.3mb 56f
1:50am 13 14 mph 1021.3mb 56f
1:40am 11 14 mph 1021.3mb 56f
1:30am 13 14 mph 1021.3mb 56f
1:20am 14 15 mph 1021.3mb 56f
1:10am 14 17 mph 1021mb 56f
1:00am 16 20 mph 1021mb 56f
12:50am 16 20 mph 1021mb 56f
12:40am 17 18 mph 1020.7mb 56f
12:30am 17 21 mph 1020.7mb 56f
12:20am 18 21 mph 1020.7mb 56f
12:10am 16 18 mph 1020.7mb 56f
12:00am 16 20 mph 1020.7mb 56f
Thu 10/19 11:50pm 17 18 mph 1020.7mb 56f
11:40pm 16 20 mph 1021mb 56f
11:30pm 16 21 mph 1020.7mb 56f
11:20pm 17 21 mph 1020.7mb 57f
11:10pm 18 22 mph 1020.7mb 57f
11:00pm 17 21 mph 1020.7mb 57f
10:50pm 18 21 mph 1020.7mb 58f
10:40pm 18 21 mph 1020.3mb 58f
10:30pm 16 18 mph 1020.7mb 58f
10:20pm 15 16 mph 1020.3mb 58f
10:10pm 14 16 mph 1020.3mb 58f
10:00pm 13 15 mph 1020.3mb 59f
9:50pm 11 14 mph 1020.3mb 58f
9:40pm 11 14 mph 1020.3mb 59f
9:30pm 11 14 mph 1020mb 59f
9:20pm 13 14 mph 1020mb 59f
9:10pm 9 14 mph 1020mb 59f
9:00pm 13 14 mph 1020mb 59f
8:50pm 13 14 mph 1019.6mb 59f
8:40pm 14 16 mph 1019.6mb 59f
8:30pm 14 16 mph 1019.6mb 60f
8:20pm 16 17 mph 1019.6mb 59f
8:10pm 14 20 mph 1019.6mb 59f
8:00pm 16 18 mph 1019.6mb 60f
7:50pm 15 18 mph 1019.3mb 60f
7:40pm 15 17 mph 1019.3mb 60f
7:30pm 15 17 mph 1019.3mb 60f
7:20pm 14 16 mph 1019.3mb 61f
7:10pm 16 17 mph 1019.3mb 61f
7:00pm 16 18 mph 1019.3mb 61f
6:50pm 15 17 mph 1019mb 61f
6:40pm 14 16 mph 1019mb 61f
6:30pm 15 16 mph 1018.6mb 62f
6:20pm 15 17 mph 1018.6mb 62f
6:10pm 15 18 mph 1018.6mb 62f
6:00pm 16 18 mph 1018.3mb 63f
5:50pm 16 18 mph 1018.3mb 63f
5:40pm 16 18 mph 1018.3mb 63f
5:30pm 18 21 mph 1017.9mb 64f
5:20pm 17 21 mph 1017.9mb 64f
5:10pm 18 23 mph 1017.9mb 64f
5:00pm 18 22 mph 1017.9mb 64f
4:50pm 18 21 mph 1017.9mb 64f
4:40pm 18 22 mph 1017.6mb 64f
4:30pm 18 21 mph 1017.6mb 64f
4:20pm 17 21 mph 1017.6mb 64f
4:10pm 15 21 mph 1017.6mb 64f
4:00pm 17 21 mph 1017.6mb 64f
3:50pm 20 22 mph 1017.3mb 64f
3:40pm 17 21 mph 1017.6mb 64f
3:30pm 20 22 mph 1017.3mb 65f
3:20pm 17 21 mph 1017.3mb 64f
3:10pm 18 21 mph 1017.3mb 64f
3:00pm 16 18 mph 1017.3mb 64f
2:50pm 17 21 mph 1017.3mb 64f
2:40pm 17 22 mph 1017.3mb 63f
2:30pm 18 21 mph 1016.9mb 64f
2:20pm 18 23 mph 1016.9mb 63f
2:10pm 18 23 mph 1016.9mb 63f
2:00pm 18 23 mph 1017.3mb 63f
1:50pm 21 22 mph 1017.3mb 63f
1:40pm 18 22 mph 1016.9mb 62f
1:30pm 21 23 mph 1017.3mb 62f
1:20pm 17 20 mph 1017.3mb 62f
1:10pm 17 21 mph 1017.3mb 62f
1:00pm 18 22 mph 1017.3mb 62f
12:50pm 15 18 mph 1017.3mb 62f
12:40pm 16 20 mph 1017.3mb 61f
12:30pm 15 21 mph 1017.3mb 61f
12:20pm 17 20 mph 1017.3mb 61f
12:10pm 18 20 mph 1017.3mb 61f
12:00pm 15 18 mph 1017.3mb 60f
11:50am 15 18 mph 1017.3mb 60f
11:40am 18 21 mph 1017.3mb 60f
11:30am 18 21 mph 1017.3mb 60f
11:20am 16 22 mph 1017.6mb 60f
11:10am 18 22 mph 1017.3mb 60f
11:00am 18 21 mph 1017.3mb 59f
10:50am 17 21 mph 1017.3mb 59f
10:40am 18 20 mph 1017.3mb 59f
10:30am 16 20 mph 1017.3mb 59f
10:20am 18 20 mph 1016.9mb 59f
10:10am 17 20 mph 1016.9mb 58f
10:00am 17 20 mph 1016.9mb 58f
9:50am 18 21 mph 1016.9mb 57f
9:40am 20 23 mph 1016.6mb 57f
9:30am 20 23 mph 1016.6mb 57f
9:20am 18 24 mph 1016.6mb 57f
9:10am 21 23 mph 1016.3mb 57f
9:00am 20 23 mph 1016.6mb 57f
8:50am 20 23 mph 1016.3mb 57f
8:40am 17 22 mph 1016.3mb 57f
8:30am 18 22 mph 1016.3mb 56f
8:20am 21 23 mph 1016.3mb 57f
8:10am 22 24 mph 1015.9mb 57f
8:00am 21 25 mph 1015.6mb 57f
7:50am 21 25 mph 1015.6mb 57f
7:40am 22 25 mph 1015.2mb 57f
7:30am 22 25 mph 1014.9mb 57f
7:20am 24 28 mph 1014.6mb 57f
7:10am 24 29 mph 1014.2mb 57f
7:00am 25 29 mph 1014.2mb 58f
6:50am 25 34 mph 1014.2mb 57f
6:40am 25 29 mph 1014.2mb 57f
6:30am 23 29 mph 1013.9mb 58f
6:20am 25 29 mph 1013.9mb 58f
6:10am 24 30 mph 1013.9mb 57f
6:00am 25 29 mph 1013.9mb 58f
5:50am 25 30 mph 1013.9mb 58f
5:40am 25 30 mph 1013.9mb 58f
5:30am 25 29 mph 1013.5mb 58f
5:20am 25 29 mph 1013.5mb 58f
5:10am 25 30 mph 1013.5mb 58f
5:00am 24 29 mph 1013.5mb 58f
4:50am 25 29 mph 1013.5mb 58f
4:40am 23 29 mph 1013.5mb 58f
4:30am 25 30 mph 1013.5mb 58f
4:20am 26 31 mph 1013.2mb 58f
4:10am 26 31 mph 1012.9mb 58f
4:00am 25 31 mph 1012.9mb 59f
3:50am 29 33 mph 1012.9mb 59f
3:40am 29 33 mph 1012.9mb 59f
3:30am 30 36 mph 1012.5mb 59f
3:20am 28 34 mph 1012.9mb 59f
3:10am 30 34 mph 1012.9mb 59f
3:00am 31 36 mph 1012.9mb 59f
2:50am 29 36 mph 1012.9mb 59f
2:40am 30 34 mph 1012.9mb 59f
2:30am 28 33 mph 1013.2mb 59f
2:20am 28 33 mph 1013.5mb 59f
2:10am 30 34 mph 1013.5mb 60f
2:00am 26 32 mph 1013.9mb 60f
1:50am 28 33 mph 1013.9mb 60f
1:40am 29 33 mph 1013.5mb 60f
1:30am 30 34 mph 1013.9mb 60f
1:20am 26 33 mph 1013.9mb 60f
1:10am 26 32 mph 1013.9mb 60f
1:00am 26 31 mph 1014.2mb 60f
12:50am 28 33 mph 1014.2mb 60f
12:40am 29 33 mph 1014.2mb 60f
12:30am 29 32 mph 1014.2mb 60f
12:20am 26 31 mph 1014.6mb 60f
12:10am 28 32 mph 1014.6mb 60f
12:00am 28 33 mph 1014.9mb 60f
Wed 10/18 11:50pm 28 33 mph 1014.6mb 60f
11:40pm 29 32 mph 1014.9mb 60f
11:30pm 29 32 mph 1014.9mb 61f
11:20pm 28 32 mph 1014.9mb 61f
11:10pm 28 33 mph 1014.9mb 61f
11:00pm 30 34 mph 1014.9mb 61f
10:50pm 28 33 mph 1015.2mb 61f
10:40pm 28 34 mph 1015.2mb 61f
10:30pm 28 32 mph 1015.6mb 61f
10:20pm 25 31 mph 1015.6mb 61f
10:10pm 26 30 mph 1015.9mb 63f
10:00pm 25 31 mph 1015.9mb 62f
9:50pm 23 28 mph 1015.9mb 61f
9:40pm 24 30 mph 1015.9mb 61f
9:30pm 25 29 mph 1015.9mb 61f
9:20pm 25 29 mph 1015.9mb 61f
9:10pm 24 29 mph 1015.9mb 61f
9:00pm 23 28 mph 1015.9mb 61f
8:50pm 24 26 mph 1015.6mb 61f
8:40pm 23 25 mph 1015.9mb 61f
8:30pm 23 26 mph 1015.9mb 61f
8:20pm 24 26 mph 1015.9mb 61f
8:10pm 22 26 mph 1015.9mb 61f
8:00pm 23 25 mph 1015.9mb 61f
7:50pm 22 24 mph 1015.6mb 61f
7:40pm 22 24 mph 1015.9mb 62f
7:30pm 21 24 mph 1015.9mb 62f
7:20pm 21 23 mph 1015.9mb 62f
7:10pm 21 24 mph 1015.9mb 62f
7:00pm 21 22 mph 1015.9mb 63f
6:50pm 20 22 mph 1015.9mb 63f
6:40pm 21 23 mph 1015.9mb 64f
6:30pm 21 22 mph 1015.9mb 64f
6:20pm 18 21 mph 1015.9mb 64f
6:10pm 20 21 mph 1015.9mb 65f
6:00pm 17 21 mph 1015.9mb 64f
5:50pm 20 22 mph 1015.9mb 65f
5:40pm 20 22 mph 1015.9mb 65f
5:30pm 21 22 mph 1015.9mb 65f
5:20pm 21 23 mph 1015.9mb 66f
5:10pm 21 23 mph 1015.9mb 66f
5:00pm 21 23 mph 1015.9mb 66f
4:50pm 21 23 mph 1015.9mb 66f
4:40pm 20 24 mph 1015.9mb 66f
4:30pm 18 23 mph 1016.3mb 65f
4:20pm 21 26 mph 1016.3mb 66f
4:10pm 18 22 mph 1016.3mb 65f
4:00pm 20 24 mph 1016.6mb 65f
3:50pm 21 25 mph 1016.9mb 65f
3:40pm 23 25 mph 1016.9mb 66f
3:30pm 17 21 mph 1016.9mb 65f
3:20pm 21 23 mph 1016.9mb 65f
3:10pm 21 25 mph 1017.3mb 65f
3:00pm 21 24 mph 1017.3mb 65f
2:50pm 21 25 mph 1017.3mb 65f
2:40pm 22 25 mph 1017.6mb 65f
2:30pm 22 24 mph 1017.6mb 65f
2:20pm 21 26 mph 1017.9mb 65f
2:10pm 22 25 mph 1017.9mb 64f
2:00pm 22 26 mph 1017.9mb 65f
1:50pm 20 23 mph 1017.9mb 64f
1:40pm 21 26 mph 1017.9mb 64f
1:30pm 21 24 mph 1018.3mb 64f
1:20pm 21 24 mph 1018.3mb 64f
1:10pm 20 22 mph 1018.3mb 64f
1:00pm 18 22 mph 1018.3mb 63f
12:50pm 18 22 mph 1018.6mb 63f
12:40pm 21 23 mph 1019mb 63f
12:30pm 20 22 mph 1019mb 62f
12:20pm 18 24 mph 1019mb 62f
12:10pm 20 23 mph 1019.3mb 62f
12:00pm 20 24 mph 1019.3mb 62f
11:50am 21 25 mph 1019.6mb 62f
11:40am 21 24 mph 1020mb 61f
11:30am 18 23 mph 1020mb 61f
11:20am 20 23 mph 1020.3mb 60f
11:10am 21 23 mph 1020.3mb 60f
11:00am 20 23 mph 1020.3mb 59f
10:50am 18 22 mph 1020.3mb 59f
10:40am 21 23 mph 1020.7mb 59f
10:30am 21 23 mph 1020.7mb 58f
10:20am 22 24 mph 1020.7mb 58f
10:10am 21 24 mph 1021mb 57f
10:00am 20 24 mph 1021mb 57f
9:50am 21 24 mph 1021mb 56f
9:40am 21 23 mph 1021mb 56f
9:30am 18 23 mph 1021mb 56f
9:20am 20 22 mph 1021mb 55f
9:10am 20 23 mph 1021mb 55f
9:00am 20 23 mph 1021mb 54f
8:50am 20 23 mph 1021.3mb 54f
8:40am 20 22 mph 1021.3mb 54f
8:30am 20 22 mph 1021.3mb 53f
8:20am 20 22 mph 1021.3mb 53f
8:10am 20 24 mph 1021.3mb 54f
8:00am 21 24 mph 1021.3mb 54f
7:50am 21 23 mph 1021mb 54f
7:40am 17 22 mph 1021mb 55f
7:30am 20 23 mph 1021mb 54f
7:20am 21 24 mph 1020.7mb 54f
7:10am 22 25 mph 1020.7mb 55f
7:00am 23 25 mph 1020.7mb 55f
6:50am 22 24 mph 1020.7mb 55f
6:40am 23 24 mph 1020.7mb 55f
6:30am 20 23 mph 1020.7mb 55f
6:20am 20 24 mph 1020.7mb 55f
6:10am 21 26 mph 1020.7mb 55f
6:00am 20 23 mph 1020.7mb 56f
5:50am 21 24 mph 1020.7mb 56f
5:40am 20 25 mph 1020.7mb 56f
5:30am 22 24 mph 1020.7mb 56f
5:20am 22 24 mph 1020.3mb 56f
5:10am 20 24 mph 1020.3mb 56f
5:00am 21 24 mph 1020.3mb 56f
4:50am 21 24 mph 1020.3mb 56f
4:40am 23 25 mph 1020.3mb 56f
4:30am 22 24 mph 1020.3mb 56f
4:20am 21 25 mph 1020.3mb 56f
4:10am 22 24 mph 1020.3mb 56f
4:00am 21 24 mph 1020.3mb 56f
3:50am 22 24 mph 1020.3mb 56f
3:40am 21 25 mph 1020.3mb 56f
3:30am 21 23 mph 1020mb 57f
3:20am 20 23 mph 1020mb 57f
3:10am 20 23 mph 1020mb 57f
3:00am 18 24 mph 1020mb 57f
2:50am 20 23 mph 1020mb 56f
2:40am 21 23 mph 1019.6mb 56f
2:30am 20 22 mph 1019.6mb 56f
2:20am 18 24 mph 1020mb 57f
2:10am 21 23 mph 1020mb 57f
2:00am 21 23 mph 1019.6mb 57f
1:50am 20 23 mph 1019.6mb 57f
1:40am 22 24 mph 1019.6mb 57f
1:30am 21 24 mph 1019.6mb 57f
1:20am 22 24 mph 1019.3mb 57f
1:10am 23 26 mph 1019.3mb 58f
1:00am 22 25 mph 1019.3mb 58f
12:50am 21 24 mph 1019.3mb 58f
12:40am 22 26 mph 1019mb 59f
12:30am 20 23 mph 1019.3mb 59f
12:20am 20 22 mph 1019.3mb 59f
12:10am 16 21 mph 1019.3mb 58f
12:00am 15 18 mph 1019.3mb 58f
Tue 10/17 11:50pm 17 20 mph 1019.3mb 58f
11:40pm 17 20 mph 1019.3mb 58f
11:30pm 18 21 mph 1019.3mb 58f
11:20pm 17 20 mph 1019.3mb 59f
11:10pm 17 18 mph 1019.3mb 59f
11:00pm 16 18 mph 1019.3mb 59f
10:50pm 16 18 mph 1019.6mb 59f
10:40pm 16 20 mph 1019.6mb 60f
10:30pm 16 20 mph 1019.6mb 60f
10:20pm 15 16 mph 1019.6mb 60f
10:10pm 14 16 mph 1019.3mb 60f
10:00pm 13 15 mph 1019.6mb 60f
9:50pm 13 14 mph 1019.3mb 60f
9:40pm 13 14 mph 1019.3mb 60f
9:30pm 11 14 mph 1019.6mb 60f
9:20pm 10 13 mph 1019.6mb 60f
9:10pm 10 13 mph 1019.3mb 60f
9:00pm 11 14 mph 1019.3mb 60f
8:50pm 11 15 mph 1019.3mb 60f
8:40pm 14 16 mph 1019.3mb 61f
8:30pm 14 16 mph 1019.3mb 61f
8:20pm 15 17 mph 1019.3mb 61f
8:10pm 15 17 mph 1019mb 61f
8:00pm 16 17 mph 1019mb 61f
7:50pm 16 21 mph 1019mb 62f
7:40pm 16 18 mph 1018.6mb 62f
7:30pm 14 17 mph 1018.6mb 62f
7:20pm 16 18 mph 1018.6mb 62f
7:10pm 16 20 mph 1018.3mb 62f
7:00pm 17 20 mph 1018.3mb 63f
6:50pm 17 22 mph 1018.3mb 63f
6:40pm 18 22 mph 1017.9mb 63f